Regional Weather Roundup
Issued by NWS

Home | Current Version | Previous Version | Text Only | Print | Product List | Glossary Off
Versions: 1 2 3 4 5 6 7 8 9 10 11 12 13 14 15 16 17 18 19 20 21 22 23 24 25 26 27 28 29 30 31 32 33 34 35 36 37 38 39 40 41 42 43 44 45 46 47 48 49 50

000
ASUS43 KTOP 240508
RWRKS

WEATHER ROUNDUP FOR KANSAS
NATIONAL WEATHER SERVICE GOODLAND KS
1100 PM CST FRI FEB 23 2018

NOTE:  "FAIR" INDICATES FEW OR NO CLOUDS BELOW 12,000 FEET WITH NO
SIGNIFICANT WEATHER AND/OR OBSTRUCTIONS TO VISIBILITY.

KSZ001>006-013>018-027>032-041>047-240600-
NORTHWEST KANSAS

CITY           SKY/WX    TMP DP  RH WIND       PRES   REMARKS
GOODLAND       CLOUDY    25  23  92 SE13      29.98F WCI  14
HAYS           CLOUDY    30  26  85 E10G20    30.09S WCI  21
HILL CITY      CLOUDY    28  25  88 E13       30.10S WCI  17
RUSSELL        CLOUDY    32  28  85 E13       30.07F WCI  22
$$

KSZ061>065-074>080-084>089-240600-
SOUTHWEST KANSAS

CITY           SKY/WX    TMP DP  RH WIND       PRES   REMARKS
DODGE CITY     CLOUDY    28  26  92 E9        30.03F FOG
ELKHART        CLOUDY    30  30 100 E12       29.94F FOG     WCI  21
GARDEN CITY    CLOUDY    28  27  96 E10       30.01F FOG     WCI  19
GREAT BEND     CLOUDY    29  27  92 E14       30.07F WCI  18
PRATT          CLOUDY    29  28  95 E8        30.06F FOG
$$

KSZ066>073-081>083-090>101-240600-
SOUTHEAST KANSAS

CITY           SKY/WX    TMP DP  RH WIND       PRES   REMARKS
CHANUTE        LGT RAIN  37  36  96 NE12      30.07F FOG     WCI  29
COFFEYVILLE    CLOUDY    39  38  96 NE13      30.04F WCI  31
HUTCHINSON     CLOUDY    31  31 100 NE8       30.08F FOG
MEDICINE LODGE   N/A     32  31  96 NE8       30.06F
NEWTON         LGT SNOW  31  30  96 NE10      30.09F FOG     WCI  22
PARSONS        LGT RAIN  38  38 100 NE8       30.05F FOG
WICHITA INTL   DRIZZLE   33  33 100 NE9       30.07F FOG
WICHITA JABRA  MIX PCPN  32  32 100 NE9       30.07F FOG
WICHITA MCCONL LGT RAIN  32  32  99 NE6       30.06F FOG
WINFIELD       CLOUDY    34  34 100 N8        30.06F FOG
$$

KSZ007>012-019>026-033>040-048>060-102>105-240600-
NORTHEAST KANSAS

CITY           SKY/WX    TMP DP  RH WIND       PRES   REMARKS
CONCORDIA      CLOUDY    29  26  89 NE10      30.15F WCI  20
EMPORIA        FRZ RAIN  31  30  96 NE12      30.10F FOG     WCI  22
LAWRENCE       LGT RAIN  34  31  88 NE8       30.16F
MANHATTAN      LGT RAIN  33  29  85 NE9       30.15F FOG
MARYSVILLE     CLOUDY    32  28  86 NE6       30.19F
OLATHE IND     MIX PCPN  33  32  96 NE12      30.14F WCI  24
OLATHE EXE     MIX PCPN  32  32 100 NE10      30.14F FOG     WCI  24
SALINA         FRZ RAIN  33  31  92 E7        30.13F FOG
TOPEKA BILLARD CLOUDY    34  32  92 NE8       30.16F
TOPEKA FORBES  LGT RAIN  34  31  88 NE7       30.14F FOG
$$




USA.gov is the U.S. government's official web portal to all federal, state and local government web resources and services.